When you browse on this site, cookies collect data to enhance your experience and personalize the content and advertising you see.
Visit our Privacy Policy to learn more. By continuing to use the site, you agree to this use of cookies and data.
  • In Lithuania
  • List of Countries
  • For 7 days
  • Water Temperature
  • Weather Map
  • Weather Widgets
  • user-avatar
    Login

    Hourly Weather Phuket

    Today, 18 November, Monday

    Time Temperature Precipitation Wind Pressure Humidity
    00:00 +30°C° 0.2 mm 3 mps 754 mmHg 73%
    01:00 +30°C° 0 mm 3 mps 754 mmHg 73%
    02:00 +30°C° 0 mm 4 mps 754 mmHg 74%
    03:00 +29°C° 0 mm 4 mps 753 mmHg 74%
    04:00 +29°C° 0 mm 4 mps 753 mmHg 75%
    05:00 +29°C° 0 mm 4 mps 753 mmHg 75%
    06:00 +29°C° 0 mm 4 mps 754 mmHg 75%
    07:00 +29°C° 0 mm 3 mps 754 mmHg 76%
    08:00 +29°C° 0 mm 3 mps 754 mmHg 74%
    09:00 +29°C° 0 mm 3 mps 755 mmHg 73%
    10:00 +30°C° 0 mm 3 mps 755 mmHg 72%
    11:00 +30°C° 0 mm 3 mps 754 mmHg 70%
    12:00 +30°C° 0 mm 2 mps 754 mmHg 68%
    13:00 +30°C° 0 mm 2 mps 753 mmHg 66%
    14:00 +31°C° 0 mm 2 mps 752 mmHg 66%
    15:00 +31°C° 0 mm 1 mps 752 mmHg 65%
    16:00 +31°C° 0 mm 1 mps 751 mmHg 64%
    17:00 +31°C° 0.3 mm 1 mps 752 mmHg 66%
    18:00 +31°C° 0.3 mm 2 mps 752 mmHg 68%
    19:00 +30°C° 0.3 mm 2 mps 753 mmHg 70%
    20:00 +30°C° 0.7 mm 2 mps 753 mmHg 72%
    21:00 +30°C° 0.7 mm 3 mps 754 mmHg 73%
    22:00 +30°C° 0.7 mm 3 mps 754 mmHg 75%
    23:00 +30°C° 1.4 mm 4 mps 754 mmHg 76%

    Tomorrow, 19 November, Tuesday

    Time Temperature Precipitation Wind Pressure Humidity
    00:00 +29°C° 1.4 mm 4 mps 754 mmHg 76%
    01:00 +29°C° 1.4 mm 4 mps 753 mmHg 77%
    02:00 +29°C° 1.3 mm 4 mps 753 mmHg 77%
    03:00 +29°C° 1.3 mm 4 mps 752 mmHg 78%
    04:00 +29°C° 1.3 mm 4 mps 752 mmHg 78%
    05:00 +29°C° 0 mm 4 mps 752 mmHg 78%
    06:00 +29°C° 0 mm 4 mps 753 mmHg 78%
    07:00 +29°C° 0 mm 4 mps 753 mmHg 78%
    08:00 +29°C° 0 mm 4 mps 753 mmHg 76%
    09:00 +29°C° 0 mm 4 mps 754 mmHg 75%
    10:00 +30°C° 0 mm 4 mps 754 mmHg 74%
    11:00 +30°C° 0 mm 3 mps 753 mmHg 72%
    12:00 +30°C° 0 mm 3 mps 753 mmHg 70%
    13:00 +31°C° 0 mm 2 mps 752 mmHg 68%
    14:00 +31°C° 0 mm 2 mps 752 mmHg 67%
    15:00 +31°C° 0 mm 2 mps 751 mmHg 67%
    16:00 +31°C° 0 mm 2 mps 750 mmHg 67%
    17:00 +31°C° 1.1 mm 2 mps 751 mmHg 69%
    18:00 +30°C° 1.1 mm 3 mps 752 mmHg 71%
    19:00 +30°C° 1.1 mm 3 mps 752 mmHg 73%
    20:00 +30°C° 1.4 mm 4 mps 753 mmHg 76%
    21:00 +29°C° 1.4 mm 5 mps 753 mmHg 78%
    22:00 +29°C° 1.4 mm 6 mps 753 mmHg 81%
    23:00 +29°C° 0.6 mm 6 mps 753 mmHg 81%

    Day after tomorrow, 20 November, Wednesday

    Time Temperature Precipitation Wind Pressure Humidity
    00:00 +29°C° 0.6 mm 7 mps 753 mmHg 81%
    01:00 +29°C° 0.6 mm 8 mps 752 mmHg 81%
    02:00 +29°C° 0.2 mm 8 mps 752 mmHg 82%
    03:00 +29°C° 0.2 mm 8 mps 751 mmHg 82%
    04:00 +28°C° 0.2 mm 8 mps 751 mmHg 82%
    05:00 +29°C° 0 mm 8 mps 752 mmHg 81%
    06:00 +29°C° 0 mm 7 mps 752 mmHg 80%
    07:00 +29°C° 0 mm 7 mps 753 mmHg 79%
    08:00 +29°C° 0 mm 7 mps 753 mmHg 78%
    09:00 +30°C° 0 mm 7 mps 753 mmHg 76%
    10:00 +31°C° 0 mm 8 mps 754 mmHg 74%
    11:00 +30°C° 0 mm 7 mps 753 mmHg 72%
    12:00 +32°C° 0 mm 6 mps 753 mmHg 70%
    13:00 +33°C° 0 mm 6 mps 752 mmHg 68%
    14:00 +33°C° 0 mm 5 mps 752 mmHg 68%
    15:00 +33°C° 0 mm 5 mps 751 mmHg 69%
    16:00 +33°C° 0 mm 5 mps 750 mmHg 70%
    17:00 +32°C° 0 mm 6 mps 751 mmHg 70%
    18:00 +32°C° 0 mm 7 mps 751 mmHg 71%
    19:00 +32°C° 0 mm 7 mps 752 mmHg 71%
    20:00 +30°C° 0 mm 7 mps 752 mmHg 72%
    21:00 +30°C° 0 mm 7 mps 753 mmHg 73%
    22:00 +30°C° 0 mm 6 mps 753 mmHg 73%
    23:00 +30°C° 0 mm 6 mps 753 mmHg 74%

    21 November, Thursday

    Time Temperature Precipitation Wind Pressure Humidity
    00:00 +30°C° 0 mm 6 mps 753 mmHg 74%
    01:00 +29°C° 0 mm 6 mps 752 mmHg 74%
    02:00 +29°C° 0 mm 6 mps 752 mmHg 75%
    03:00 +29°C° 0 mm 6 mps 752 mmHg 76%
    04:00 +29°C° 0 mm 6 mps 752 mmHg 77%
    05:00 +29°C° 0 mm 5 mps 752 mmHg 77%
    06:00 +29°C° 0 mm 5 mps 752 mmHg 77%
    07:00 +29°C° 0 mm 5 mps 753 mmHg 76%
    08:00 +29°C° 0 mm 5 mps 753 mmHg 75%
    09:00 +29°C° 0 mm 5 mps 753 mmHg 74%
    10:00 +29°C° 0 mm 5 mps 754 mmHg 73%
    11:00 +30°C° 0 mm 4 mps 753 mmHg 72%
    12:00 +30°C° 0 mm 3 mps 753 mmHg 70%
    13:00 +30°C° 0 mm 2 mps 752 mmHg 68%
    14:00 +30°C° 0.1 mm 3 mps 752 mmHg 69%
    15:00 +31°C° 0.1 mm 3 mps 751 mmHg 69%
    16:00 +31°C° 0.1 mm 3 mps 751 mmHg 69%
    17:00 +30°C° 0.9 mm 4 mps 751 mmHg 71%
    18:00 +30°C° 0.9 mm 4 mps 752 mmHg 73%
    19:00 +30°C° 0.9 mm 5 mps 752 mmHg 75%
    20:00 +30°C° 0.5 mm 5 mps 753 mmHg 75%
    21:00 +30°C° 0.5 mm 5 mps 753 mmHg 76%
    22:00 +29°C° 0.5 mm 5 mps 754 mmHg 76%
    23:00 +29°C° 0 mm 5 mps 753 mmHg 76%

    22 November, Friday

    Time Temperature Precipitation Wind Pressure Humidity
    00:00 +29°C° 0 mm 5 mps 753 mmHg 76%
    01:00 +29°C° 0 mm 5 mps 753 mmHg 76%
    02:00 +29°C° 0 mm 5 mps 752 mmHg 76%
    03:00 +29°C° 0 mm 5 mps 752 mmHg 76%
    04:00 +29°C° 0 mm 5 mps 752 mmHg 76%
    05:00 +29°C° 0 mm 5 mps 752 mmHg 76%
    06:00 +29°C° 0 mm 5 mps 753 mmHg 76%
    07:00 +29°C° 0 mm 4 mps 753 mmHg 77%
    08:00 +29°C° 0 mm 4 mps 754 mmHg 75%
    09:00 +29°C° 0 mm 4 mps 754 mmHg 74%
    10:00 +29°C° 0 mm 4 mps 754 mmHg 72%
    11:00 +30°C° 0 mm 3 mps 754 mmHg 71%
    12:00 +30°C° 0 mm 3 mps 753 mmHg 69%
    13:00 +30°C° 0 mm 2 mps 753 mmHg 67%
    14:00 +30°C° 0 mm 2 mps 752 mmHg 67%
    15:00 +31°C° 0 mm 2 mps 752 mmHg 66%
    16:00 +31°C° 0 mm 2 mps 751 mmHg 65%
    17:00 +31°C° 0.5 mm 2 mps 752 mmHg 68%
    18:00 +30°C° 0.5 mm 2 mps 752 mmHg 70%
    19:00 +30°C° 0.5 mm 2 mps 753 mmHg 72%
    20:00 +30°C° 0.4 mm 3 mps 753 mmHg 73%
    21:00 +30°C° 0.4 mm 3 mps 753 mmHg 74%
    22:00 +30°C° 0.4 mm 4 mps 754 mmHg 75%
    23:00 +29°C° 0 mm 4 mps 754 mmHg 76%

    23 November, Saturday

    Time Temperature Precipitation Wind Pressure Humidity
    00:00 +29°C° 0 mm 4 mps 753 mmHg 78%
    01:00 +29°C° 0 mm 4 mps 753 mmHg 79%
    02:00 +29°C° 0 mm 3 mps 753 mmHg 79%
    03:00 +29°C° 0 mm 3 mps 752 mmHg 79%
    04:00 +29°C° 0 mm 3 mps 752 mmHg 80%
    05:00 +29°C° 0.1 mm 3 mps 753 mmHg 79%
    06:00 +29°C° 0.1 mm 3 mps 753 mmHg 79%
    07:00 +29°C° 0.1 mm 3 mps 753 mmHg 79%
    08:00 +29°C° 0.1 mm 3 mps 754 mmHg 78%
    09:00 +29°C° 0.1 mm 3 mps 754 mmHg 77%
    10:00 +30°C° 0.1 mm 4 mps 754 mmHg 76%
    11:00 +30°C° 0.1 mm 3 mps 754 mmHg 73%
    12:00 +30°C° 0.1 mm 2 mps 753 mmHg 71%
    13:00 +30°C° 0.1 mm 1 mps 753 mmHg 69%
    14:00 +30°C° 0.2 mm 1 mps 752 mmHg 68%
    15:00 +30°C° 0.2 mm 1 mps 752 mmHg 68%
    16:00 +31°C° 0.2 mm 1 mps 752 mmHg 67%
    17:00 +30°C° 1.2 mm 1 mps 752 mmHg 68%
    18:00 +30°C° 1.2 mm 2 mps 752 mmHg 70%
    19:00 +30°C° 1.2 mm 2 mps 753 mmHg 71%
    20:00 +30°C° 0.5 mm 3 mps 753 mmHg 72%
    21:00 +30°C° 0.5 mm 3 mps 754 mmHg 73%
    22:00 +30°C° 0.5 mm 4 mps 754 mmHg 74%
    23:00 +30°C° 0 mm 3 mps 754 mmHg 75%
    Show more